GW0175 Weather Reports


time (UTC)temp
C
wind
direction
speed
KPH
gust
KPH
rain 1hr
cm
rain 24hr
cm
rain mn
cm
humidity
%
barometer
mb
20260904152008 31 237 0.0 3.2 0.00 0.00 0.00 43 1013.3
20260904151502 31 336 3.2 6.4 0.00 0.00 0.00 44 1013.3
20260904150956 30 180 1.6 8.0 0.00 0.00 0.00 45 1013.3
20260904150452 30 172 0.0 8.0 0.00 0.00 0.00 46 1013.4
20260904145950 30 304 8.0 8.0 0.00 0.00 0.00 46 1013.5
20260904145446 30 300 0.0 4.8 0.00 0.00 0.00 46 1013.5
20260904144941 30 26 0.0 3.2 0.00 0.00 0.00 46 1013.4
20260904144437 29 276 0.0 4.8 0.00 0.00 0.00 48 1013.7
20260904143932 28 165 0.0 11.3 0.00 0.00 0.00 50 1013.4
20260904143429 28 75 0.0 8.0 0.00 0.00 0.00 50 1013.5
20260904142925 28 102 3.2 4.8 0.00 0.00 0.00 49 1013.4
20260904142421 28 270 1.6 16.1 0.00 0.00 0.00 51 1013.5
20260904141915 28 289 0.0 16.1 0.00 0.00 0.00 52 1013.4
20260904141410 28 254 0.0 11.3 0.00 0.00 0.00 52 1013.4
20260904140907 27 126 0.0 8.0 0.00 0.00 0.00 52 1013.4
20260904140401 27 325 4.8 14.5 0.00 0.00 0.00 53 1013.2
20260904135900 27 285 1.6 8.0 0.00 0.00 0.00 53 1013.2
20260904135355 27 305 3.2 8.0 0.00 0.00 0.00 54 1013.0
20260904134852 27 273 6.4 6.4 0.00 0.00 0.00 55 1013.3
20260904134351 26 288 0.0 8.0 0.00 0.00 0.00 55 1013.2
20260904133851 26 243 3.2 16.1 0.00 0.00 0.00 55 1013.3
20260904133347 27 90 0.0 4.8 0.00 0.00 0.00 55 1013.2
20260904132846 26 208 3.2 9.7 0.00 0.00 0.00 55 1013.3
20260904132341 26 286 8.0 8.0 0.00 0.00 0.00 55 1013.2
20260904131836 26 343 3.2 6.4 0.00 0.00 0.00 55 1013.0
20260904131331 26 221 3.2 8.0 0.00 0.00 0.00 56 1012.9
20260904130826 25 349 3.2 4.8 0.00 0.00 0.00 56 1013.0
20260904130325 25 198 1.6 6.4 0.00 0.00 0.00 57 1012.9
20260904125821 25 98 1.6 3.2 0.00 0.00 0.00 57 1012.7
20260904125317 25 248 3.2 4.8 0.00 0.00 0.00 58 1012.4
20260904124816 24 290 0.0 8.0 0.00 0.00 0.00 59 1012.6
20260904124313 23 353 0.0 0.0 0.00 0.00 0.00 58 1012.7
20260904123807 23 334 0.0 3.2 0.00 0.00 0.00 58 1012.5
20260904123303 23 131 3.2 3.2 0.00 0.00 0.00 57 1012.1
20260904122757 24 346 0.0 8.0 0.00 0.00 0.00 56 1012.2
20260904122256 24 0 0.0 3.2 0.00 0.00 0.00 56 1012.1
20260904121752 24 180 1.6 4.8 0.00 0.00 0.00 56 1012.1
20260904121248 23 36 3.2 4.8 0.00 0.00 0.00 57 1012.0
20260904120744 23 225 4.8 4.8 0.00 0.00 0.00 57 1012.2
20260904120240 23 291 0.0 3.2 0.00 0.00 0.00 57 1012.2
20260904115735 23 21 0.0 3.2 0.00 0.00 0.00 56 1011.9
20260904115230 23 240 0.0 4.8 0.00 0.00 0.00 56 1011.6
20260904114725 23 255 6.4 6.4 0.00 0.00 0.00 56 1012.0
20260904114225 23 66 0.0 1.6 0.00 0.00 0.00 56 1012.1
20260904113720 23 208 0.0 4.8 0.00 0.00 0.00 56 1012.0
20260904113218 23 60 1.6 3.2 0.00 0.00 0.00 56 1011.6
20260904112714 23 120 1.6 3.2 0.00 0.00 0.00 56 1011.8
20260904112209 23 234 0.0 4.8 0.00 0.00 0.00 57 1011.9
20260904111705 23 75 1.6 1.6 0.00 0.00 0.00 56 1012.0
20260904111200 23 310 4.8 6.4 0.00 0.00 0.00 56 1012.0
20260904110656 24 312 3.2 3.2 0.00 0.00 0.00 55 1011.8
20260904110155 24 286 0.0 4.8 0.00 0.00 0.00 55 1011.8
20260904105650 25 327 0.0 8.0 0.00 0.00 0.00 54 1011.5
20260904105145 25 353 0.0 11.3 0.00 0.00 0.00 53 1011.6
20260904104640 25 324 4.8 11.3 0.00 0.00 0.00 52 1011.8
20260904104130 25 300 0.0 12.9 0.00 0.00 0.00 53 1011.8
20260904103626 24 320 0.0 6.4 0.00 0.00 0.00 56 1011.8
20260904103122 23 168 0.0 1.6 0.00 0.00 0.00 58 1011.9
20260904102618 23 82 0.0 1.6 0.00 0.00 0.00 56 1011.8
20260904102113 24 145 1.6 3.2 0.00 0.00 0.00 56 1011.9
20260904101609 24 278 3.2 6.4 0.00 0.00 0.00 55 1011.6
20260904101105 23 299 4.8 8.0 0.00 0.00 0.00 56 1011.8
20260904100600 23 294 1.6 4.8 0.00 0.00 0.00 57 1011.9
20260904100055 22 7 0.0 3.2 0.00 0.00 0.00 60 1011.6
20260904095549 22 15 0.0 3.2 0.00 0.00 0.00 59 1011.9
20260904095044 23 0 0.0 0.0 0.00 0.00 0.00 58 1011.6
20260904094539 23 20 0.0 3.2 0.00 0.00 0.00 57 1011.8
20260904094034 23 243 0.0 4.8 0.00 0.00 0.00 57 1011.5
20260904093531 23 0 0.0 0.0 0.00 0.00 0.00 58 1011.8
20260904093031 23 172 0.0 1.6 0.00 0.00 0.00 57 1011.9
20260904092527 23 294 0.0 3.2 0.00 0.00 0.00 57 1012.0
20260904092023 24 303 0.0 4.8 0.00 0.00 0.00 56 1012.0
20260904091519 24 312 3.2 3.2 0.00 0.00 0.00 55 1012.1
20260904091018 24 326 0.0 3.2 0.00 0.00 0.00 55 1011.8
20260904090514 24 352 0.0 4.8 0.00 0.00 0.00 55 1012.0
20260904090010 24 276 3.2 4.8 0.00 0.00 0.00 56 1011.8
20260904085505 24 297 0.0 0.0 0.00 0.00 0.00 56 1011.8
20260904085004 24 297 0.0 0.0 0.00 0.00 0.00 55 1011.8
20260904084500 25 297 0.0 3.2 0.00 0.00 0.00 54 1011.8
20260904083955 25 270 0.0 3.2 0.00 0.00 0.00 54 1011.9
20260904083452 25 331 0.0 3.2 0.00 0.00 0.00 54 1011.9
20260904082947 25 287 3.2 6.4 0.00 0.00 0.00 54 1011.9
20260904082442 25 291 0.0 4.8 0.00 0.00 0.00 54 1011.9
20260904081937 25 289 0.0 8.0 0.00 0.00 0.00 54 1011.8
20260904081433 25 346 0.0 4.8 0.00 0.00 0.00 53 1011.8
20260904080929 25 297 1.6 6.4 0.00 0.00 0.00 55 1012.1
20260904080424 24 285 0.0 6.4 0.00 0.00 0.00 56 1012.1
20260904075920 25 243 0.0 6.4 0.00 0.00 0.00 55 1012.4
20260904075416 25 237 0.0 4.8 0.00 0.00 0.00 54 1012.0
20260904074914 25 265 3.2 6.4 0.00 0.00 0.00 54 1012.1
20260904074410 25 35 0.0 6.4 0.00 0.00 0.00 54 1012.0
20260904073905 25 270 1.6 6.4 0.00 0.00 0.00 56 1011.9
20260904073401 25 243 0.0 3.2 0.00 0.00 0.00 55 1011.6
20260904072856 25 174 0.0 3.2 0.00 0.00 0.00 54 1011.8
20260904072351 25 81 0.0 3.2 0.00 0.00 0.00 54 1011.5
20260904071846 25 233 0.0 3.2 0.00 0.00 0.00 53 1011.8
20260904071341 25 215 0.0 1.6 0.00 0.00 0.00 53 1011.4
20260904070836 25 291 1.6 4.8 0.00 0.00 0.00 53 1011.9
20260904070335 25 270 3.2 3.2 0.00 0.00 0.00 54 1011.9
20260904065829 25 193 4.8 6.4 0.00 0.00 0.00 54 1012.0
20260904065327 25 180 4.8 6.4 0.00 0.00 0.00 53 1012.0
20260904064821 25 185 3.2 4.8 0.00 0.00 0.00 54 1012.0
20260904064317 25 172 0.0 1.6 0.00 0.00 0.00 54 1012.0
20260904063813 25 174 0.0 3.2 0.00 0.00 0.00 54 1011.8
20260904063309 26 165 0.0 3.2 0.00 0.00 0.00 53 1011.6
20260904062804 26 246 0.0 1.6 0.00 0.00 0.00 51 1011.9
20260904062300 26 180 0.0 1.6 0.00 0.00 0.00 51 1011.6
20260904061755 26 196 3.2 3.2 0.00 0.00 0.00 50 1011.9
20260904061251 26 241 0.0 6.4 0.00 0.00 0.00 50 1011.8
20260904060748 27 160 0.0 3.2 0.00 0.00 0.00 49 1011.8
20260904060243 27 241 3.2 8.0 0.00 0.00 0.00 49 1011.6
20260904055738 27 237 3.2 6.4 0.00 0.00 0.00 49 1011.8
20260904055232 27 253 4.8 8.0 0.00 0.00 0.00 49 1011.6
20260904054728 27 190 4.8 8.0 0.00 0.00 0.00 49 1011.5
20260904054224 26 225 6.4 6.4 0.00 0.00 0.00 49 1011.6
20260904053719 26 241 4.8 6.4 0.00 0.00 0.00 49 1011.6
20260904053218 26 225 3.2 8.0 0.00 0.00 0.00 51 1011.6
20260904052715 25 237 4.8 8.0 0.00 0.00 0.00 52 1011.6
20260904052211 26 221 3.2 4.8 0.00 0.00 0.00 52 1011.9
20260904051708 26 216 4.8 6.4 0.00 0.00 0.00 52 1012.1
20260904051203 26 197 3.2 4.8 0.00 0.00 0.00 51 1011.9
20260904050658 25 213 0.0 8.0 0.00 0.00 0.00 53 1011.8
20260904050154 25 270 0.0 8.0 0.00 0.00 0.00 57 1011.8
20260904045654 26 240 3.2 4.8 0.00 0.00 0.00 53 1011.8
20260904045154 26 209 3.2 4.8 0.00 0.00 0.00 53 1011.5
20260904044649 26 160 4.8 4.8 0.00 0.00 0.00 52 1011.4
20260904044146 27 250 6.4 9.7 0.00 0.00 0.00 48 1011.5
20260904043642 27 135 0.0 4.8 0.00 0.00 0.00 47 1011.5
20260904043137 27 175 3.2 3.2 0.00 0.00 0.00 48 1011.4
20260904042633 26 172 0.0 1.6 0.00 0.00 0.00 49 1011.1
20260904042128 26 261 0.0 0.0 0.00 0.00 0.00 49 1011.1
20260904041624 26 270 0.0 1.6 0.00 0.00 0.00 50 1011.3
20260904041120 26 279 0.0 1.6 0.00 0.00 0.00 50 1011.2
20260904040615 26 254 0.0 1.6 0.00 0.00 0.00 50 1011.0
20260904040112 26 246 0.0 3.2 0.00 0.00 0.00 50 1011.2
20260904035607 27 251 3.2 4.8 0.00 0.00 0.00 48 1011.2
20260904035106 27 240 0.0 3.2 0.00 0.00 0.00 49 1011.4
20260904034601 27 254 1.6 4.8 0.00 0.00 0.00 47 1011.0
20260904034057 28 180 0.0 3.2 0.00 0.00 0.00 46 1011.1
20260904033553 28 180 0.0 3.2 0.00 0.00 0.00 45 1011.2
20260904033050 28 180 3.2 4.8 0.00 0.00 0.00 45 1011.2
20260904032545 27 154 1.6 4.8 0.00 0.00 0.00 46 1011.1
20260904032044 27 169 3.2 3.2 0.00 0.00 0.00 46 1011.2
20260904031543 26 106 0.0 0.0 0.00 0.00 0.00 47 1011.1
20260904031040 27 66 0.0 3.2 0.00 0.00 0.00 45 1011.0
20260904030535 28 180 0.0 0.0 0.00 0.00 0.00 44 1011.0
20260904030031 27 246 0.0 0.0 0.00 0.00 0.00 45 1010.8
20260904025526 27 246 0.0 0.0 0.00 0.00 0.00 47 1010.7
20260904025026 27 255 0.0 3.2 0.00 0.00 0.00 48 1010.6
20260904024522 28 246 0.0 4.8 0.00 0.00 0.00 48 1010.8
20260904024017 28 173 0.0 1.6 0.00 0.00 0.00 45 1010.4
20260904023514 28 203 0.0 0.0 0.00 0.00 0.00 44 1010.6
20260904023009 28 203 1.6 1.6 0.00 0.00 0.00 43 1010.2
20260904022504 28 188 0.0 1.6 0.00 0.00 0.00 46 1010.2
20260904022001 28 270 1.6 6.4 0.00 0.00 0.00 46 1010.0
20260904021456 30 165 1.6 1.6 0.00 0.00 0.00 38 1010.0
20260904020956 30 74 0.0 0.0 0.00 0.00 0.00 38 1009.9
20260904020452 30 74 0.0 0.0 0.00 0.00 0.00 38 1009.8
20260904015950 30 74 0.0 0.0 0.00 0.00 0.00 37 1009.6
20260904015446 30 74 0.0 0.0 0.00 0.00 0.00 37 1009.6
20260904014944 30 66 0.0 3.2 0.00 0.00 0.00 37 1009.5
20260904014439 30 35 0.0 0.0 0.00 0.00 0.00 36 1009.6
20260904013935 30 74 0.0 3.2 0.00 0.00 0.00 36 1009.6
20260904013431 31 54 0.0 3.2 0.00 0.00 0.00 36 1009.5
20260904012927 30 45 3.2 4.8 0.00 0.00 0.00 36 1009.5
20260904012426 31 49 3.2 4.8 0.00 0.00 0.00 35 1009.5
20260904011921 31 0 6.4 8.0 0.00 0.00 0.00 34 1009.6
20260904011416 32 353 4.8 4.8 0.00 0.00 0.00 34 1009.6
20260904010911 32 348 1.6 8.0 0.00 0.00 0.00 34 1009.5
20260904010408 32 346 4.8 6.4 0.00 0.00 0.00 33 1009.4
20260904005902 32 270 0.0 3.2 0.00 0.00 0.00 33 1009.4
20260904005358 32 251 0.0 3.2 0.00 0.00 0.00 32 1009.4
20260904004852 33 77 0.0 3.2 0.00 0.00 0.00 32 1009.2
20260904004349 33 276 0.0 3.2 0.00 0.00 0.00 32 1009.4
20260904003849 33 258 3.2 8.0 0.00 0.00 0.00 32 1009.5
20260904003345 34 254 0.0 3.2 0.00 0.00 0.00 30 1009.5
20260904002840 34 304 0.0 3.2 0.00 0.00 0.00 29 1009.2
20260904002337 35 345 1.6 1.6 0.00 0.00 0.00 29 1009.2
20260904001835 35 117 0.0 3.2 0.00 0.00 0.00 28 1009.1
20260904001331 35 0 0.0 1.6 0.00 0.00 0.00 27 1009.4
20260904000826 35 350 0.0 0.0 0.00 0.00 0.00 28 1009.0
20260904000325 35 349 4.8 9.7 0.00 0.00 0.00 28 1009.2
20260903235820 35 0 6.4 9.7 0.00 0.00 0.00 28 1008.9
20260903235316 35 3 9.7 14.5 0.00 0.00 0.00 27 1009.0
20260903234815 36 0 3.2 8.0 0.00 0.00 0.00 26 1009.1
20260903234312 36 0 6.4 12.9 0.00 0.00 0.00 26 1008.7
20260903233808 37 270 3.2 4.8 0.00 0.00 0.00 26 1008.9
20260903233304 35 352 6.4 11.3 0.00 0.00 0.00 28 1008.9
20260903232803 35 0 8.0 14.5 0.00 0.00 0.00 27 1009.1
20260903232259 35 348 0.0 14.5 0.00 0.00 0.00 28 1009.0
20260903231757 35 343 9.7 17.7 0.00 0.00 0.00 27 1009.2
20260903231253 35 351 6.4 17.7 0.00 0.00 0.00 27 1008.8
20260903230748 35 350 6.4 22.5 0.00 0.00 0.00 27 1008.9
20260903230248 35 352 11.3 20.9 0.00 0.00 0.00 28 1008.9
20260903225744 36 353 9.7 17.7 0.00 0.00 0.00 27 1009.1
20260903225241 35 348 9.7 27.4 0.00 0.00 0.00 28 1009.0
20260903224737 37 294 0.0 8.0 0.00 0.00 0.00 26 1008.9
20260903224233 38 4 0.0 6.4 0.00 0.00 0.00 23 1008.8
20260903223728 38 79 0.0 4.8 0.00 0.00 0.00 22 1009.1
20260903223226 38 301 3.2 8.0 0.00 0.00 0.00 25 1008.9
20260903222721 37 74 1.6 4.8 0.00 0.00 0.00 27 1008.9
20260903222220 35 294 0.0 6.4 0.00 0.00 0.00 26 1009.1
20260903221715 34 0 0.0 4.8 0.00 0.00 0.00 30 1009.1
20260903221214 33 16 0.0 6.4 0.00 0.00 0.00 35 1009.4
20260903220712 33 0 0.0 0.0 0.00 0.00 0.00 33 1009.2
20260903220208 33 270 0.0 8.0 0.00 0.00 0.00 31 1009.4
20260903215706 33 298 4.8 8.0 0.00 0.00 0.00 31 1009.4
20260903215202 32 295 3.2 6.4 0.00 0.00 0.00 32 1009.5
20260903214700 32 300 0.0 4.8 0.00 0.00 0.00 37 1009.5
20260903214156 32 270 0.0 4.8 0.00 0.00 0.00 38 1009.7
20260903213650 31 41 0.0 8.0 0.00 0.00 0.00 40 1009.5
20260903213147 32 279 3.2 19.3 0.00 0.00 0.00 38 1009.6
20260903212642 31 197 14.5 17.7 0.00 0.00 0.00 39 1009.8
20260903212138 31 204 14.5 19.3 0.05 0.00 0.00 38 1010.0
20260903211637 29 200 14.5 20.9 0.05 0.00 0.00 49 1010.0
20260903211135 29 195 9.7 24.1 0.00 0.00 0.00 50 1009.9
20260903210630 31 186 11.3 24.1 0.00 0.00 0.00 36 1009.9
20260903210125 30 177 12.9 20.9 0.00 0.00 0.00 48 1010.0
20260903205619 33 240 4.8 19.3 0.00 0.00 0.00 39 1009.9
20260903205113 35 245 9.7 19.3 0.00 0.00 0.00 30 1009.8
20260903204609 35 242 8.0 19.3 0.00 0.00 0.00 28 1009.9
20260903204104 36 239 14.5 24.1 0.00 0.00 0.00 27 1009.9
20260903203559 37 289 0.0 4.8 0.00 0.00 0.00 24 1009.8
20260903203054 37 66 3.2 6.4 0.00 0.00 0.00 24 1009.7
20260903202550 37 352 3.2 6.4 0.00 0.00 0.00 23 1009.7
20260903202045 37 300 0.0 3.2 0.00 0.00 0.00 24 1009.7
20260903201539 37 157 3.2 3.2 0.00 0.00 0.00 23 1009.8
20260903201038 37 345 0.0 3.2 0.00 0.00 0.00 23 1010.0
20260903200533 37 275 0.0 6.4 0.00 0.00 0.00 24 1010.1
20260903200029 37 195 1.6 9.7 0.00 0.00 0.00 24 1010.0
20260903195525 38 34 3.2 3.2 0.00 0.00 0.00 23 1009.9
20260903195020 38 221 9.7 9.7 0.00 0.00 0.00 24 1009.9
20260903194515 37 228 11.3 12.9 0.00 0.00 0.00 25 1010.0
20260903194010 36 206 4.8 8.0 0.00 0.00 0.00 26 1010.2
20260903193507 36 188 3.2 8.0 0.00 0.00 0.00 26 1010.3
20260903193001 37 206 3.2 8.0 0.00 0.00 0.00 25 1010.2
20260903192458 38 256 4.8 14.5 0.00 0.00 0.00 24 1010.3
20260903191953 37 139 0.0 8.0 0.00 0.00 0.00 24 1010.3
20260903191449 37 295 4.8 9.7 0.00 0.00 0.00 25 1010.7
20260903190948 37 180 3.2 4.8 0.00 0.00 0.00 25 1010.6
20260903190443 37 157 4.8 8.0 0.00 0.00 0.00 24 1010.6
20260903185943 37 23 4.8 6.4 0.00 0.00 0.00 24 1010.9
20260903185439 37 180 0.0 8.0 0.00 0.00 0.00 24 1010.9
20260903184938 37 158 3.2 8.0 0.00 0.00 0.00 24 1011.2
20260903184436 37 174 4.8 6.4 0.00 0.00 0.00 24 1011.1
20260903183930 36 165 6.4 9.7 0.00 0.00 0.00 25 1011.2
20260903183425 36 155 4.8 8.0 0.00 0.00 0.00 25 1011.4
20260903182924 36 176 3.2 6.4 0.00 0.00 0.00 25 1011.4
20260903182423 36 233 0.0 8.0 0.00 0.00 0.00 26 1011.9
20260903181918 36 192 3.2 4.8 0.00 0.00 0.00 26 1011.9
20260903181413 37 178 4.8 9.7 0.00 0.00 0.00 25 1011.5
20260903180912 37 237 9.7 9.7 0.00 0.00 0.00 25 1011.9
20260903180407 36 345 1.6 3.2 0.00 0.00 0.00 25 1012.1
20260903175906 36 317 9.7 9.7 0.00 0.00 0.00 25 1012.0
20260903175401 37 281 3.2 11.3 0.00 0.00 0.00 25 1012.1
20260903174855 36 12 6.4 8.0 0.00 0.00 0.00 26 1012.1
20260903174351 36 196 3.2 6.4 0.00 0.00 0.00 26 1012.2
20260903173844 36 86 3.2 11.3 0.00 0.00 0.00 26 1012.0
20260903173340 37 26 3.2 4.8 0.00 0.00 0.00 26 1012.4
20260903172836 36 187 0.0 8.0 0.00 0.00 0.00 26 1012.2
20260903172330 37 139 4.8 11.3 0.00 0.00 0.00 26 1012.3
20260903171826 36 276 3.2 9.7 0.00 0.00 0.00 26 1012.4
20260903171321 37 117 0.0 11.3 0.00 0.00 0.00 27 1012.3
20260903170820 37 240 0.0 4.8 0.00 0.00 0.00 26 1012.4
20260903170316 37 353 0.0 6.4 0.00 0.00 0.00 26 1012.4
20260903165814 36 6 6.4 8.0 0.00 0.00 0.00 27 1012.3
20260903165308 36 186 1.6 6.4 0.00 0.00 0.00 28 1012.4
20260903164803 36 105 1.6 14.5 0.00 0.00 0.00 28 1012.5
20260903164259 36 297 6.4 6.4 0.00 0.00 0.00 27 1012.5
20260903163757 35 246 0.0 9.7 0.00 0.00 0.00 29 1012.6
20260903163254 35 345 0.0 4.8 0.00 0.00 0.00 30 1012.6
20260903162751 35 288 4.8 9.7 0.00 0.00 0.00 29 1012.6
20260903162246 35 229 4.8 8.0 0.00 0.00 0.00 31 1012.6
20260903161742 35 270 0.0 4.8 0.00 0.00 0.00 31 1012.7
20260903161237 33 221 4.8 4.8 0.00 0.00 0.00 32 1012.6
20260903160733 33 331 3.2 8.0 0.00 0.00 0.00 33 1012.5
20260903160231 33 0 0.0 4.8 0.00 0.00 0.00 33 1012.6
20260903155730 33 276 3.2 4.8 0.00 0.00 0.00 33 1012.6
20260903155225 33 156 0.0 3.2 0.00 0.00 0.00 33 1012.7
20260903154721 32 192 3.2 6.4 0.00 0.00 0.00 36 1012.9
20260903154217 32 206 4.8 6.4 0.00 0.00 0.00 36 1012.6
20260903153712 32 180 1.6 4.8 0.00 0.00 0.00 37 1012.7
20260903153208 31 160 1.6 4.8 0.00 0.00 0.00 37 1012.7
20260903152704 31 156 3.2 3.2 0.00 0.00 0.00 38 1012.6